sat.trackr.live / text

‹ back to catalog

STARLINK-3229

NORAD 49751 · 2021-115AD

PAYLOAD ACTIVE UNKNOWN

§ Identity

Operator
Country
US
Launch date
2021-12-02
Launch site
AFETR
Launch vehicle
Mass (kg)
RCS (m²)

Purposes: comms

External: N2YO · Heavens-Above · Gunter

§ Orbital elements

Epoch: 2026-09-19T18:53:15.505728Z

Period
93.85 min
Inclination
53.1622°
Eccentricity
0.0001081
Mean motion
15.34400086 rev/d
Perigee alt
462.0 km
Apogee alt
463.4 km
Semi-major
6,840.8 km
B*
2.5832e-6
RAAN
351.4004°
Arg perigee
88.4947°
Mean anomaly
271.6180°
Rev number
26,492

§ Raw data

STARLINK-32291 49751U 21115AD  26262.78698502 -.00000289  00000+0  25832-5 0  99932 49751  53.1622 351.4004 0001081  88.4947 271.6180 15.34400086264923

JSON: /api/v1/satellites/49751 · /tle

For live sub-satellite position, see the globe view (requires WebGL).

§ Visibility from observer

Set your observer location to see the next 7 days of passes ≥ 10°. The values pass through the URL so the page stays shareable.

No JS? Fill the form by hand. The geolocation button needs JavaScript.